www.pogodaiklimat.ru
Время
(UTC), дата
23:53 30.12
00:53 30.12
01:53 30.12
02:28 30.12
02:44 30.12
02:50 30.12
02:53 30.12
03:14 30.12
03:34 30.12
03:45 30.12
03:53 30.12
04:14 31.12
04:53 31.12
05:10 31.12
05:17 31.12
05:26 31.12
05:35 31.12
05:43 31.12
05:53 31.12
06:11 31.12
06:50 31.12
06:53 31.12
07:05 31.12
07:30 31.12
07:53 31.12
08:53 31.12
09:26 31.12
09:53 31.12
10:53 31.12
11:53 31.12
12:42 31.12
12:53 31.12
13:19 31.12
13:45 31.12
13:53 31.12
14:25 31.12
14:42 31.12
14:53 31.12
15:53 31.12
16:31 31.12
16:53 31.12
17:46 31.12
17:53 31.12
18:33 31.12
18:53 31.12
19:53 31.12
20:53 31.12
21:53 31.12
Ветер
(напр.,м/с)
Видим. Явления Облачность Т
(С)
Тd
(С)
f
(%)
Тe
(С)
Тes
(С)
Комфортность P
(гПа)
Po
(гПа)
Тmin
(С)
Tmax
(С)
R
(мм)
R24
(мм)
S
(см)
ЮЗ 9
{16}
14 км слабый снег 10/10 510 м 0.0 -3.9 75 -8 -8 998.7 969.5
ЮЗ 11
{16}
14 км слабый снег 10/10 510 м 0.0 -3.9 75 -9 -9 998.6 969.5
ЮЗ 9
{17}
10 км слабый снег 10/10 660 м 0.0 -3.9 75 -8 -8 997.9 968.9
ЮЗ 7 3 км слабый снег 10/10 450 м -0.6 -3.3 82 -8 -8 968.6
ЮЗ 8
{13}
2 км слабый снег, дымка 10/10 510 м -0.6 -2.8 85 -9 -9 968.2
ЮЗ 6
{13}
2 км слабый снег, дымка 10/10 240 м -1.0 -3.0 86 -8 -8 968.2
ЮЗ 6
{10}
2 км слабый снег, дымка 10/10 240 м -0.6 -2.8 85 -8 -8 997.3 968.2
ЮЗ 7 2 км слабый снег, дымка 10/10 270 м -0.6 -2.8 85 -8 -8 968.2
ЮЗ 8
{11}
1 км слабый снег, дымка 10/10 270 м -0.6 -2.8 85 -9 -9 968.2
ЮЗ 11
{15}
2 км слабый снег, дымка 10/10 270 м -0.6 -2.8 85 -10 -10 968.2
ЮЗ 10
{15}
2 км слабый снег, дымка 10/10 270 м -0.6 -2.8 85 -9 -9 997.1 967.9
ЮЗ 8
{18}
2 км слабый снег 10/10 390 м -0.6 -3.3 82 -9 -9 967.9
ЮЗ 10
{16}
2 км слабый снег, дымка 10/10 450 м -1.1 -3.3 85 -10 -10 996.5 967.6 -1.1 0.0
ЮЗ 9
{14}
2 км слабый снег, дымка 10/10 420 м -1.1 -3.3 85 -10 -10 967.2
ЮЗ 9
{13}
2 км слабый снег, дымка 10/10 330 м -1.1 -3.3 85 -10 -10 967.2
ЮЗ 8
{13}
2 км слабый снег, дымка 10/10 240 м -1.1 -3.3 85 -9 -9 967.2
ЮЗ 9
{14}
1 км слабый снег, дымка 10/10 330 м -1.1 -3.3 85 -10 -10 967.2
ЮЗ 8
{13}
2 км слабый снег, дымка 10/10 270 м -1.1 -3.3 85 -9 -9 967.2
ЮЗ 9
{14}
1 км слабый снег, дымка 10/10 330 м -1.1 -3.3 85 -10 -10 996.1 967.2
ЮЗ 10
{16}
1 км слабый снег, дымка ?/? -1.1 -3.3 85 -10 -10 967.2
ЮЗ 14
{18}
2 км слабый снег 10/10 270 м -2.0 -4.0 86 -13 -13 967.6
ЮЗ 13
{18}
2 км слабый снег 10/10 300 м -1.7 -4.4 82 -12 -12 996.5 967.2
ЮЗ 9
{15}
1 км слабый снег, дымка 10/10 270 м -2.2 -4.4 85 -11 -11 967.6
ЮЗ 11
{17}
800 м снег, переохлажденный туман ?/? -2.2 -4.4 85 -12 -12 967.6
ЮЗ 10
{17}
800 м снег, переохлажденный туман ?/? -2.2 -4.4 85 -12 -12 996.8 967.6
ЮЗ 10
{14}
800 м снег, переохлажденный туман ?/? -2.2 -4.4 85 -12 -12 997.0 967.9
З 9 2 км слабый снег, дымка ?/? -2.2 -4.4 85 -11 -11 967.9
З 9
{13}
2 км слабый снег, метель 10/10 300 м -2.2 -4.4 85 -11 -11 997.4 968.2
З 9 3 км слабый снег, метель 10/10 360 м -2.2 -4.4 85 -11 -11 998.4 969.2 -2.2 -1.1 4.6
З 8 2 км слабый снег 10/10 420 м -1.7 -4.4 82 -10 -10 999.2 969.9
З 7 4 км слабый снег 10/10 480 м -1.7 -4.4 82 -10 -10 970.5
З 6 5 км слабый снег 10/10 450 м -1.7 -4.4 82 -9 -9 1000.0 970.9
З 7 3 км слабый снег 10/10 480 м -1.7 -4.4 82 -10 -10 971.2
З 6 5 км слабый снег 10/10 510 м -1.7 -5.0 78 -9 -9 971.8
З 7 6 км слабый снег 10/10 510 м -1.7 -5.0 78 -9 -9 1001.1 971.8
З 8
{12}
4 км слабый снег 10/10 510 м -1.7 -5.6 75 -10 -10 972.2
З 8
{11}
8 км слабый снег 10/10 750 м -1.1 -5.6 71 -9 -9 972.5
З 8
{12}
10 км слабый снег 10/10 720 м -1.1 -6.1 69 -9 -9 1002.1 972.8
З 7
{13}
14 км слабый снег 10/10 660 м -1.1 -5.6 71 -9 -9 1002.6 973.5
З 9
{12}
4 км слабый снег 10/10 600 м -1.7 -5.6 75 -11 -11 973.5
З 7
{13}
5 км слабый снег 10/10 600 м -1.1 -5.6 71 -9 -9 1003.1 973.8 -2.2 -1.1
З 8
{12}
2 км слабый снег 10/10 720 м -1.7 -5.6 75 -10 -10 973.8
З 7
{12}
2 км слабый снег 10/10 720 м -1.7 -5.0 78 -10 -10 1003.3 973.8
З 7
{10}
13 км слабый снег 10/10 420 м -1.7 -5.0 78 -9 -9 974.1
З 6
{12}
13 км слабый снег 10/10 420 м -1.1 -5.6 71 -8 -8 1003.8 974.5
З 6
{10}
14 км слабый снег 10/10 690 м -1.1 -5.6 71 -8 -8 1004.7 975.1
З 7 14 км слабый снег 10/10 690 м -1.1 -5.6 71 -9 -9 1005.5 976.1
З 7 14 км слабый снег 10/10 750 м -1.7 -6.1 72 -9 -9 1006.3 976.8
Местоположение метеостанции Gerald R. Ford International Airport: широта 42.8808 долгота -85.5228 высота над уровнем моря 242 м.
В архиве по умолчанию представлена погода в Гранд-Рапидсе за последние 1-2 суток. Обновление информации о фактической погоде в базе происходит ежечасно! Архивные данные за месяц целиком и за предыдущие месяцы Вы можете получить, выбрав интересующий диапазон дат из раскрывающегося списка и нажав кнопку "Ввод!".
Внимание! Архив погоды МЕТАР в базе сайта по станциям, не включенным в климатический монитор, хранится не более 60 дней. Нет смысла пытаться выбрать более раннюю дату.
*Определитесь, кто Вы:
Внимание! Время в таблицах - всемирное. Для получения местного времени необходимо прибавить поправку, которая равна ч.
Смотрите также архив погоды в соседних городах и на ближайших метеорологических станциях:
Партнеры нашего сайта:      
Пояснения к столбцам:
  • Ветер - указаны скорость ветра в м/с - средняя за 10 мин, порывы в срок и между сроками (в фигурных скобках) и направление, откуда дует ветер: С - северный,
  • СВ - северо-восточный, В - восточный, ЮВ - юго-восточный, Ю - южный, ЮЗ - юго-западный, З - западный, СЗ - северо-западный.
  • Видимость - горизонтальная дальность видимости в метрах или километрах. При видимости от 1 до 10 км при отсутствии осадков обычно наблюдается дымка, при ухудшении видимости до 1 км и менее - туман. В сухую погоду видимость может ухудшаться дымом, пылью или мглою.
  • Явления - указаны атмосферные явления, наблюдавшиеся в срок или в последний час перед сроком; фигурными скобками обозначены явления, наблюдавшиеся между сроками (за 1-3 часа до срока); квадратными скобками обозначены град или гололедные отложения с указанием их диаметра в мм.
  • Облачность - указаны через наклонную черту общая и нижняя облачность в баллах и высота нижней границы облаков в метрах; квадратными скобками обозначены формы облаков: Ci - перистые, Cs - перисто-слоистые, Cc - перисто-кучевые, Ac - высококучевые, As - высокослоистые, Sc - слоисто-кучевые, Ns - слоисто-дождевые, Cu - кучевые, Cb - кучево-дождевые. Подробнее классификацию облаков см. в Атласе облаков (PDF).
  • T - Температура воздуха - температура, измеренная на высоте 2 м над землей.
  • Td - Температура точки росы - температура, при понижении до которой содержащийся в воздухе водяной пар достигнет насыщения.
  • f - Относительная влажность воздуха - влажноcть воздуха, измеренная на высоте 2 м над землей.
  • Te - Эффективная температура - температура, которую ощущает одетый по сезону человек в тени. Характеристика душности погоды. При расчете учитывается влияние влажности воздуха и скорости ветра на теплоощущения человека.
  • Tes - Эффективная температура на солнце - температура, которую ощущает человек, с поправкой на солнечный нагрев. Характеристика знойности погоды. Зависит от высоты солнца над горизонтом, облачности и скорости ветра. Ночью, в пасмурную погоду, а также при ветре 12 м/с и более поправка равна нулю.
  • P - Атмосферное давление - приведенное к уровню моря атмосферное давление.
  • Po - Атмосферное давление - измеренное на уровне метеостанции атмосферное давление.
  • Tmin - Минимальная температура - минимум температуры воздуха на высоте 2 м над землей.
  • Tmax - Максимальная температура - максимум температуры воздуха на высоте 2 м над землей.
  • R - Количество осадков - Количество выпавших осадков за период времени, мм. При наведении курсора мыши на число - период времени, за который выпало указанное количество осадков.
  • R24 - Количество осадков - Количество выпавших осадков за 24 часа, мм.
  • S - Снежный покров - Высота снежного покрова, см. При наведении курсора мыши на число - состояние снежного покрова и степень покрытия местности в баллах.